Wind_Speed
13 11 10 9 9 9 9 10 11 12 12 13 14 14 15 15 16 16 17 18 18 18 18 19 21 22 23 22 21 20 20 20 19 19 19 19 18 17 17 16 15 15
13 11 9 8 7 7 7 8 9 10 11 11 12 12 13 14 14 15 15 16 18 18 18 18 19 20 22 22 22 21 20 19 19 19 19 19 19 18 18 17 17 16
12 10 9 8 6 6 7 7 8 8 9 10 11 11 12 12 13 14 14 15 16 18 18 18 18 19 20 21 21 21 20 19 19 19 19 19 19 18 18 18 18 18
11 9 8 7 5 5 6 7 7 8 8 9 10 11 11 12 12 13 13 14 15 16 17 18 18 18 19 20 20 20 20 19 19 18 18 18 18 18 18 18 18 18
13 9 5 6 5 4 7 8 8 9 9 9 9 10 11 11 12 12 13 14 14 15 16 17 17 18 18 18 19 20 19 19 18 18 18 18 18 18 18 18 18 18
13 11 5 5 3 4 7 9 9 10 10 10 9 10 11 12 12 13 13 14 14 15 16 16 16 16 17 17 18 18 19 19 18 17 17 17 17 17 17 17 18 18
13 11 7 5 4 5 8 9 10 11 11 11 10 10 11 12 13 13 14 14 14 15 15 16 15 15 15 15 15 16 17 18 18 17 16 16 15 15 15 16 16 17
14 12 9 8 7 8 8 9 10 10 11 11 11 11 11 12 13 13 14 14 14 14 14 15 15 14 13 13 13 14 14 15 16 16 16 15 14 14 14 14 15 15
17 15 13 12 12 12 11 9 8 9 10 11 10 11 11 12 12 13 13 14 14 14 14 13 14 13 12 11 11 11 12 12 13 13 14 14 13 13 13 13 13 14
18 18 16 15 16 16 14 10 8 8 9 10 10 10 11 12 12 12 12 13 13 14 14 13 12 12 11 10 9 9 9 10 10 10 11 12 12 12 11 12 12 12
19 20 19 18 19 18 15 11 9 8 8 10 10 9 11 12 12 12 12 12 12 13 13 13 12 11 10 8 7 7 7 7 8 8 9 9 10 10 10 10 10 10
22 22 20 19 21 20 15 12 12 11 10 10 10 10 10 11 12 13 13 12 11 11 12 13 13 12 9 7 6 5 5 5 6 6 6 6 7 8 8 8 8 7
24 23 22 22 23 22 18 16 15 14 13 11 11 12 12 10 10 12 14 15 13 11 10 11 12 12 11 8 6 3 3 3 3 4 4 4 4 5 6 6 5 5
27 27 27 27 25 24 22 20 18 18 17 14 12 13 14 12 10 11 14 16 16 14 12 10 10 11 11 10 8 5 3 1 1 2 3 3 3 2 2 3 3 3
31 31 31 30 27 26 24 23 21 20 19 16 14 14 16 16 14 13 13 15 16 16 15 12 10 9 10 10 10 9 6 4 3 3 3 4 3 3 2 2 2 3
34 34 33 30 28 26 25 24 23 22 21 19 18 17 18 19 18 16 16 15 15 16 16 15 12 10 9 10 11 12 11 8 7 6 5 5 5 5 4 4 3 4
38 37 34 31 29 28 28 27 26 25 23 22 21 20 20 20 20 19 18 18 18 17 17 16 14 12 12 11 11 12 14 13 11 9 8 6 6 6 6 5 5 5
39 38 35 34 32 30 30 29 28 26 24 24 24 24 23 22 21 21 20 20 21 21 19 18 16 15 15 14 13 13 14 15 14 12 10 8 7 6 6 6 6 6
37 36 34 35 34 32 31 31 31 29 26 25 25 27 28 24 22 25 26 26 25 24 23 21 18 17 17 16 16 15 14 16 16 14 13 11 9 8 8 8 8 8
36 34 34 36 35 34 32 31 31 31 30 29 28 31 32 29 27 29 30 30 28 26 26 25 22 20 19 19 18 17 16 17 17 16 14 13 12 11 10 10 10 10
42 39 38 38 37 35 34 34 34 34 34 34 33 34 34 32 32 32 30 30 30 28 28 28 26 24 22 21 21 20 19 19 18 18 16 14 14 13 13 12 13 13
51 47 43 40 38 38 38 37 36 36 36 36 36 35 34 33 34 34 32 32 33 31 30 31 29 27 26 24 24 23 23 22 20 20 19 17 15 15 15 15 15 15
55 49 44 41 40 41 41 39 38 39 40 39 38 38 37 36 36 36 35 35 36 34 32 33 32 31 29 27 27 27 27 27 24 23 23 21 18 16 17 17 17 17
56 51 46 44 44 45 43 40 40 42 43 42 41 41 40 40 40 40 39 39 39 36 33 32 32 31 30 29 29 29 30 30 28 27 26 25 22 19 18 18 19 20
57 53 50 50 51 51 48 44 42 44 46 44 41 40 40 42 44 44 43 42 40 36 34 33 32 30 29 29 30 30 30 31 31 31 30 29 27 24 22 21 20 21
58 57 56 56 56 57 56 54 51 49 47 42 36 35 35 38 43 47 47 46 43 40 38 37 34 32 31 31 32 33 32 32 33 33 33 32 32 30 28 26 23 22
Wind_Direction
348 340 338 345 353 358 359 356 355 358 2 9 19 25 26 26 26 24 21 18 20 25 32 38 41 43 45 46 45 44 44 45 45 45 44 44 43 43 42 41 42 40
347 336 329 333 344 357 7 5 357 353 354 357 6 15 20 23 25 25 23 19 16 17 21 29 37 42 45 47 48 47 47 47 47 47 47 47 47 47 47 46 46 46
344 332 322 322 332 353 11 18 8 355 346 345 352 2 10 16 20 23 24 21 18 16 15 20 27 35 41 45 47 48 48 49 49 50 50 51 50 50 51 50 50 51
344 337 316 307 319 353 10 18 17 6 350 338 341 350 358 4 10 16 21 21 19 18 16 17 19 25 34 40 44 47 48 49 50 50 51 52 52 52 53 53 53 53
338 342 312 288 305 351 8 16 21 16 4 347 338 341 349 355 0 6 13 18 20 19 18 17 17 19 24 32 39 42 44 47 49 50 52 53 53 53 53 53 53 52
320 331 311 266 290 346 359 8 17 17 12 0 349 343 347 354 357 360 5 10 16 19 18 18 17 17 18 23 31 36 40 42 45 48 51 53 54 54 55 55 54 53
299 311 301 268 285 340 351 358 3 8 10 7 3 358 354 356 357 358 0 3 8 15 18 18 16 15 16 18 23 29 35 39 40 42 45 50 53 55 56 56 55 55
284 295 299 289 299 322 332 340 345 351 359 3 5 6 4 1 357 356 357 358 0 5 12 17 15 13 13 16 18 21 28 34 38 38 38 41 47 51 54 55 54 54
283 288 292 289 294 305 312 318 326 333 345 352 356 2 7 5 359 355 353 352 353 355 1 9 14 13 11 13 17 18 21 26 33 38 37 35 39 45 50 53 52 51
283 284 283 281 283 290 295 297 301 310 326 337 341 346 355 359 357 352 348 346 345 346 349 356 7 13 10 8 13 15 17 20 25 32 36 34 33 37 44 50 52 50
278 275 274 275 275 276 277 278 282 287 299 315 323 329 337 345 347 345 342 340 340 340 341 345 353 6 9 5 7 13 14 16 19 22 28 30 29 29 34 44 50 52
271 267 264 268 272 270 264 260 266 271 279 296 306 311 317 329 335 335 333 332 335 339 339 338 341 351 1 1 358 6 12 13 12 13 15 19 22 21 22 30 42 52
265 261 258 262 268 267 259 251 253 259 267 279 291 296 300 309 319 323 324 324 326 331 337 339 336 339 346 352 345 342 2 9 2 357 356 358 6 13 12 13 23 39
259 259 259 260 263 263 257 249 248 252 256 264 275 285 289 289 294 304 311 317 319 320 325 334 336 333 335 340 338 321 293 285 320 312 309 315 321 333 350 355 355 2
255 256 256 257 259 257 251 248 252 253 255 262 270 277 282 281 280 285 294 306 312 312 314 320 328 329 328 332 335 328 303 264 237 240 257 268 275 273 271 276 293 301
251 251 251 253 254 251 246 247 254 255 254 259 261 266 276 278 276 279 286 294 300 303 304 308 312 316 318 322 329 333 324 297 261 240 238 247 256 258 252 246 246 258
249 249 250 250 249 246 246 250 253 251 251 253 252 255 264 268 271 278 285 288 288 289 293 298 300 302 304 309 317 327 330 319 293 264 246 239 247 255 256 252 248 253
248 250 251 251 249 246 247 251 252 247 248 251 250 251 252 254 262 273 281 285 283 281 283 286 288 290 292 298 307 315 323 323 311 288 265 247 243 250 258 260 257 258
245 249 249 248 249 248 247 249 249 246 248 251 250 250 248 245 254 269 278 281 277 273 276 277 277 279 282 288 297 303 309 314 312 300 280 259 244 239 243 251 252 253
236 239 240 241 245 247 244 246 249 250 253 254 251 248 246 247 256 269 276 275 269 266 270 271 271 273 275 280 288 292 296 299 302 300 288 269 253 241 236 239 242 245
228 229 234 239 242 243 242 246 252 254 254 253 251 247 245 249 258 264 265 264 264 265 267 268 270 271 271 275 282 286 287 286 288 291 288 275 260 247 237 236 238 241
228 231 235 237 237 237 241 246 249 250 249 248 247 245 241 243 250 254 256 259 265 268 268 268 268 268 268 271 276 281 282 280 278 279 280 277 266 253 242 235 234 236
227 229 230 231 232 236 242 246 244 243 244 245 246 245 243 242 244 249 253 259 264 266 268 269 267 265 265 267 270 275 278 276 272 270 271 273 270 264 254 244 238 235
225 224 225 228 233 238 241 241 239 241 243 244 245 247 248 247 247 247 250 255 257 258 260 262 262 260 261 263 266 270 272 271 267 264 265 266 266 266 262 254 246 240
223 225 230 234 238 240 237 230 230 237 242 242 244 249 253 254 251 248 248 250 251 251 253 255 255 253 255 261 266 269 268 267 264 261 261 262 262 261 259 257 252 247
224 229 234 236 237 237 232 226 224 229 234 236 238 243 246 248 247 245 244 245 246 247 249 251 249 246 247 255 265 270 268 265 262 260 259 260 262 261 258 257 254 250
Height
11023 11022 11021 11021 11021 11020 11020 11020 11021 11021 11021 11020 11019 11019 11018 11018 11017 11017 11017 11017 11017 11017 11017 11016 11016 11015 11015 11014 11013 11012 11011 11010 11010 11009 11009 11008 11007 11007 11006 11006 11005 11004
11023 11023 11022 11022 11021 11021 11021 11021 11021 11021 11021 11020 11020 11019 11019 11018 11018 11018 11018 11017 11018 11018 11018 11017 11017 11017 11017 11016 11015 11014 11013 11012 11012 11011 11010 11010 11009 11008 11008 11007 11006 11006
11024 11023 11023 11022 11022 11021 11021 11021 11020 11020 11020 11020 11020 11020 11019 11019 11019 11018 11018 11018 11018 11018 11018 11018 11018 11018 11018 11018 11017 11016 11015 11014 11013 11013 11012 11011 11011 11010 11009 11009 11008 11007
11023 11023 11023 11023 11022 11022 11021 11021 11020 11020 11020 11020 11020 11020 11019 11019 11019 11018 11019 11019 11019 11019 11019 11019 11019 11019 11019 11019 11019 11018 11017 11016 11015 11015 11014 11013 11012 11012 11011 11010 11010 11009
11023 11022 11022 11022 11022 11022 11021 11021 11021 11021 11020 11020 11020 11019 11019 11019 11019 11018 11019 11019 11019 11019 11019 11019 11019 11020 11020 11020 11020 11020 11019 11018 11017 11017 11016 11015 11014 11014 11013 11012 11012 11011
11022 11022 11022 11021 11021 11021 11021 11021 11021 11021 11021 11020 11020 11019 11019 11019 11019 11018 11018 11019 11019 11020 11020 11019 11019 11019 11020 11020 11021 11021 11021 11020 11020 11019 11018 11017 11017 11016 11015 11015 11014 11013
11021 11021 11021 11020 11020 11020 11020 11020 11020 11020 11020 11020 11019 11019 11019 11019 11019 11018 11018 11018 11019 11019 11020 11020 11020 11020 11020 11020 11021 11021 11022 11022 11021 11021 11020 11020 11019 11018 11018 11017 11016 11015
11019 11019 11020 11020 11019 11019 11019 11019 11020 11019 11019 11019 11019 11019 11019 11018 11018 11018 11018 11018 11018 11019 11019 11020 11020 11020 11020 11020 11021 11021 11022 11022 11022 11022 11022 11022 11021 11021 11020 11019 11018 11017
11018 11018 11019 11019 11019 11019 11018 11018 11019 11019 11018 11018 11019 11019 11018 11018 11018 11018 11018 11018 11018 11018 11019 11019 11020 11020 11020 11020 11021 11021 11021 11022 11022 11023 11023 11023 11023 11023 11022 11021 11020 11019
11016 11017 11018 11018 11018 11018 11018 11018 11017 11017 11017 11018 11018 11018 11018 11018 11018 11018 11018 11018 11018 11018 11018 11019 11019 11020 11021 11021 11021 11021 11022 11022 11023 11023 11023 11023 11024 11024 11023 11023 11022 11021
11015 11015 11016 11016 11017 11017 11016 11017 11016 11016 11016 11017 11017 11018 11018 11018 11018 11018 11018 11018 11018 11018 11018 11018 11019 11020 11020 11021 11021 11021 11022 11022 11023 11023 11023 11024 11024 11024 11024 11024 11024 11023
11012 11013 11013 11014 11014 11015 11014 11015 11015 11015 11015 11015 11016 11017 11017 11018 11018 11018 11018 11018 11018 11017 11018 11018 11018 11019 11020 11021 11021 11021 11021 11022 11022 11023 11023 11024 11024 11024 11024 11024 11024 11024
11008 11009 11010 11011 11012 11012 11013 11013 11013 11013 11013 11013 11014 11015 11016 11017 11018 11018 11018 11018 11018 11017 11017 11017 11018 11018 11019 11020 11021 11021 11020 11021 11021 11022 11023 11023 11023 11024 11024 11024 11024 11024
11005 11006 11007 11009 11009 11010 11010 11011 11011 11011 11011 11011 11012 11013 11015 11016 11016 11017 11017 11017 11018 11017 11017 11017 11017 11017 11018 11019 11020 11020 11020 11020 11020 11021 11022 11022 11023 11023 11023 11023 11024 11024
11002 11004 11004 11006 11007 11007 11008 11008 11008 11009 11009 11010 11010 11012 11013 11014 11014 11015 11016 11016 11017 11017 11017 11017 11016 11016 11017 11018 11019 11020 11020 11020 11019 11020 11020 11021 11022 11022 11022 11022 11023 11023
10999 11000 11001 11003 11003 11004 11004 11005 11006 11007 11008 11008 11009 11010 11011 11011 11012 11013 11013 11015 11016 11016 11016 11016 11016 11016 11015 11016 11017 11018 11019 11020 11019 11019 11019 11020 11021 11021 11021 11022 11022 11022
10994 10996 10998 10999 11000 11000 11001 11002 11004 11005 11006 11007 11008 11008 11009 11009 11009 11010 11011 11012 11013 11014 11015 11015 11015 11014 11014 11014 11015 11016 11017 11018 11019 11019 11019 11019 11019 11020 11021 11021 11021 11021
10989 10991 10994 10995 10996 10996 10997 10998 11000 11002 11003 11004 11005 11005 11005 11005 11006 11008 11009 11010 11011 11012 11012 11013 11013 11013 11013 11013 11013 11014 11015 11016 11018 11018 11018 11018 11018 11019 11019 11020 11020 11021
10986 10988 10990 10991 10992 10992 10993 10994 10995 10997 10999 11000 11001 11001 11001 11002 11003 11005 11006 11007 11008 11008 11009 11010 11010 11010 11010 11011 11011 11012 11013 11014 11015 11016 11017 11017 11017 11017 11017 11018 11018 11019
10982 10984 10985 10986 10987 10988 10989 10989 10990 10992 10994 10995 10996 10996 10996 10998 11000 11002 11003 11003 11004 11005 11006 11006 11007 11008 11008 11008 11009 11009 11010 11011 11013 11014 11015 11015 11015 11015 11015 11015 11016 11016
10976 10977 10978 10980 10981 10983 10984 10985 10985 10987 10988 10989 10990 10991 10992 10994 10996 10997 10999 11000 11000 11001 11002 11003 11004 11004 11005 11005 11006 11007 11008 11009 11010 11011 11012 11013 11013 11013 11013 11013 11013 11013
10970 10971 10973 10975 10976 10978 10979 10980 10980 10980 10981 10983 10984 10985 10987 10990 10990 10991 10993 10995 10996 10997 10998 10999 10999 11000 11001 11002 11003 11004 11005 11006 11007 11008 11009 11010 11010 11010 11010 11010 11010 11010
10965 10967 10969 10971 10972 10973 10975 10974 10974 10975 10976 10977 10978 10980 10982 10984 10985 10986 10988 10990 10991 10992 10993 10994 10995 10996 10997 10998 10999 11000 11001 11002 11003 11004 11005 11006 11007 11008 11008 11008 11007 11007
10959 10962 10964 10965 10966 10968 10969 10970 10970 10970 10970 10971 10972 10974 10976 10978 10979 10981 10983 10985 10986 10987 10988 10989 10991 10991 10991 10993 10994 10995 10997 10998 10999 11000 11001 11002 11004 11005 11005 11005 11005 11005
10954 10956 10957 10958 10960 10962 10963 10964 10963 10963 10964 10965 10967 10968 10970 10971 10972 10974 10976 10978 10980 10981 10982 10983 10985 10986 10987 10988 10990 10991 10992 10994 10995 10996 10997 10998 11000 11001 11001 11001 11002 11002
10947 10950 10951 10952 10953 10954 10955 10956 10956 10956 10958 10960 10961 10962 10963 10964 10965 10966 10968 10971 10973 10974 10975 10977 10979 10981 10982 10984 10986 10987 10988 10990 10991 10992 10993 10994 10996 10997 10997 10998 10998 10999